Weather History for Melilla, Spain

Change the Weather History Date:

Monday, November 25, 2013

  Actual Average Record
Temperature  
Mean Temperature 57 °F -  
Max Temperature 61 °F 65 °F 77 °F (2006)
Min Temperature 53 °F 54 °F 50 °F (1998)
Degree Days  
Heating Degree Days 8    
Growing Degree Days 7 (Base 50)    
Moisture  
Dew Point 43 °F    
Average Humidity 56    
Maximum Humidity 72    
Minimum Humidity 44    
Precipitation  
Precipitation 0.00 in 0.07 in - ()
Sea Level Pressure  
Sea Level Pressure 30.07 in    
Wind  
Wind Speed 4 mph ()    
Max Wind Speed 8 mph    
Max Gust Speed -    
Visibility 7.0 miles    
Events      
Averages and records for this station are not official NWS values.
T = Trace of Precipitation, MM = Missing Value Source: Averaged Metar Reports

Daily Weather History Graph

Daily Weather History Graph

Search for Another Location

Airport:

Trip Planner

Search our weather history database for the weather conditions in past years. The results will help you decide how hot, cold, wet, or windy it might be!

Date:

Astronomy

Nov. 25, 2013 Rise Set
Actual Time 7:56 AM CET 6:00 PM CET
Civil Twilight 7:29 AM CET 6:28 PM CET
Nautical Twilight 6:57 AM CET 6:59 PM CET
Astronomical Twilight 6:27 AM CET 7:30 PM CET
Moon 12:06 AM CET (11/25) 1:14 PM CET (11/25)
Length of Visible Light 10h 59m
Length of Day
10h 04m
Waning Gibbous, 53% of the Moon is Illuminated
Nov 25
Waning Gibbous
Nov 25
Last Quarter
Dec 3
New
Dec 9
First Quarter
Dec 17
Full

Hourly Weather History & Observations

Time (CET) Temp. Dew Point Humidity Pressure Visibility Wind Dir Wind Speed Gust Speed Precip Events Conditions
6:00 AM 57.2 °F 42.8 °F 59% 30.01 in 6.2 mi NE 5.8 mph - N/A   Scattered Clouds
6:30 AM 55.4 °F 44.6 °F 67% 30.01 in 6.2 mi South 1.2 mph - N/A   Scattered Clouds
7:00 AM 54 °F 46 °F 65% 30.03 in 12 mi Calm Calm - -   Partly Cloudy
7:00 AM 53.6 °F 44.6 °F 72% 30.04 in 6.2 mi Calm Calm - N/A   Scattered Clouds
7:30 AM 53.6 °F 44.6 °F 72% 30.04 in 6.2 mi SSE 3.5 mph - N/A   Scattered Clouds
8:00 AM 53.6 °F 42.8 °F 67% 30.04 in 6.2 mi South 3.5 mph - N/A   Partly Cloudy
8:30 AM 55.4 °F 42.8 °F 63% 30.04 in 6.2 mi Variable 2.3 mph - N/A   Partly Cloudy
9:00 AM 57.2 °F 44.6 °F 63% 30.06 in 6.2 mi Variable 2.3 mph - N/A   Partly Cloudy
9:30 AM 59.0 °F 44.6 °F 59% 30.06 in 6.2 mi SE 3.5 mph - N/A   Partly Cloudy
10:00 AM 59.0 °F 44.6 °F 59% 30.06 in 6.2 mi SE 5.8 mph - N/A   Partly Cloudy
10:30 AM 59.0 °F 44.6 °F 59% 30.09 in 6.2 mi SE 8.1 mph - N/A   Partly Cloudy
11:00 AM 60.8 °F 44.6 °F 55% 30.09 in 6.2 mi SE 6.9 mph - N/A   Partly Cloudy
11:30 AM 60.8 °F 44.6 °F 55% 30.09 in 6.2 mi SE 5.8 mph - N/A   Partly Cloudy
12:00 PM 59.0 °F 44.6 °F 59% 30.09 in 6.2 mi NE 5.8 mph - N/A   Partly Cloudy
12:30 PM 60.8 °F 44.6 °F 55% 30.09 in 6.2 mi ENE 4.6 mph - N/A   Partly Cloudy
1:00 PM 61 °F 45 °F 44% 30.10 in 31 mi East 3.5 mph - -   Scattered Clouds
1:00 PM 60.8 °F 44.6 °F 55% 30.09 in 6.2 mi East 3.5 mph - N/A   Partly Cloudy
1:30 PM 60.8 °F 44.6 °F 55% 30.09 in 6.2 mi NE 3.5 mph - N/A   Partly Cloudy
2:00 PM 60.8 °F 41.0 °F 48% 30.09 in 6.2 mi ENE 8.1 mph - N/A   Partly Cloudy
2:30 PM 60.8 °F 41.0 °F 48% 30.06 in 6.2 mi ENE 6.9 mph - N/A   Partly Cloudy
3:00 PM 60.8 °F 41.0 °F 48% 30.06 in 6.2 mi East 6.9 mph - N/A   Partly Cloudy
3:30 PM 60.8 °F 41.0 °F 48% 30.06 in 6.2 mi ENE 8.1 mph - N/A   Partly Cloudy
4:00 PM 60.8 °F 42.8 °F 52% 30.06 in - ENE 8.1 mph - N/A   Clear
4:30 PM 60.8 °F 41.0 °F 48% 30.09 in - ENE 6.9 mph - N/A   Clear
5:00 PM 60.8 °F 39.2 °F 45% 30.09 in - ENE 6.9 mph - N/A   Clear
5:30 PM 60.8 °F 39.2 °F 45% 30.09 in - East 5.8 mph - N/A   Clear
6:00 PM 59.0 °F 42.8 °F 55% 30.09 in - East 6.9 mph - N/A   Clear
6:30 PM 59.0 °F 42.8 °F 55% 30.09 in - East 6.9 mph - N/A   Clear
7:00 PM 58 °F 45 °F 51% 30.12 in 19 mi East 5.8 mph - -  
7:00 PM 59.0 °F 44.6 °F 59% 30.12 in - East 5.8 mph - N/A   Clear
7:30 PM 59.0 °F 44.6 °F 59% 30.12 in - ENE 5.8 mph - N/A   Clear